User: anonymous   Login
Location: Melbourne
(37.8170°S, 144.9670°E)
Time: 04:08:37
(UTC+11:00)
Language:

Cosmos 1656 Rocket - Orbit

View from above orbital plane
View from above orbital plane
View from above satellite
View from above satellite

Ground track
Ground track

The orbit data is extracted from the following two-line orbital elements,

1 15772U 85042D   17295.81583296 -.00000096  00000-0 -22068-4 0  9996
2 15772  71.1084  66.4106 0036481 207.9610 261.0219 14.21212514679584
Epoch (UTC): 22 October 2017 19:34:47
Eccentricity: 0.0036481
inclination: 71.1084°
perigee height: 795 km
apogee height: 847 km
right ascension of ascending node: 66.4106°
argument of perigee: 207.9610°
revolutions per day: 14.21212514
mean anomaly at epoch: 261.0219°
orbit number at epoch: 67958

The dashed part of the orbit path shows where the satellite is in the earth's shadow,  

DLR